Wind_Speed
19 18 17 17 17 18 17 16 16 17 18 19 21 21 21 21 19 17 16 14 13 12 13 13 15 15 14 14 15 16 18 20 22 23 24 24 25 26 26 25 24 23 23 23 22 21 20 21 21 21 21 21 21 20 19 18 17 17 17 16 15 15 15 15 16 18 16 13 11 10 11 11 11 11 9 8 8 8 8 7 8 8 7 6 6
15 14 14 15 16 15 15 14 15 16 18 19 20 21 22 21 18 18 18 17 15 14 14 14 15 16 16 16 17 19 20 20 22 24 25 25 25 26 27 27 26 24 23 23 22 21 21 22 22 22 21 22 22 22 21 19 18 18 18 18 16 15 16 15 16 17 16 13 12 11 11 12 12 11 10 9 8 8 8 8 8 8 7 6 7
12 12 14 14 14 14 13 13 14 15 17 19 20 22 22 19 18 19 20 18 17 17 16 15 15 16 18 18 19 20 21 21 22 23 23 24 25 25 26 27 28 27 26 25 23 23 23 23 23 22 22 23 23 23 23 22 20 20 19 19 18 17 16 16 16 16 15 13 12 13 12 12 13 12 11 10 10 10 10 9 9 9 8 8 8
11 11 12 13 13 13 13 13 14 15 17 18 19 21 20 18 18 20 20 19 20 19 18 17 16 16 18 19 19 20 21 21 22 23 22 22 23 22 22 23 25 27 27 27 26 25 25 25 24 23 23 24 24 24 25 25 23 22 21 21 20 19 18 17 17 16 16 15 14 14 14 14 14 13 13 12 12 11 12 12 11 11 11 11 10
10 11 12 12 12 12 12 13 14 15 16 17 18 19 18 17 18 20 20 20 20 20 20 19 18 18 19 18 18 19 20 21 22 23 22 21 21 21 20 22 23 24 25 25 26 26 26 26 26 25 25 25 25 25 25 26 26 25 24 23 22 21 19 19 19 18 17 17 16 15 15 15 15 14 14 14 14 13 14 14 14 13 13 13 13
10 11 11 11 11 11 11 12 13 14 15 16 16 16 15 16 18 19 19 20 20 21 21 20 20 20 20 19 19 20 20 21 22 22 22 21 22 22 23 24 25 25 26 25 25 25 25 26 25 25 26 27 27 26 26 26 27 28 27 26 24 23 22 21 20 20 20 20 19 18 17 16 16 16 15 15 15 15 15 15 15 15 14 14 14
9 10 10 10 10 9 9 10 10 11 12 13 14 14 14 15 18 18 17 19 20 21 21 21 21 20 20 20 20 21 21 21 22 23 24 24 24 24 24 25 26 27 28 28 27 27 27 26 26 25 26 27 28 28 27 27 27 29 30 29 27 26 25 24 23 22 22 21 21 21 20 19 19 19 18 17 17 17 16 17 17 17 16 15 15
9 9 10 10 9 8 6 7 7 8 9 10 11 12 13 14 16 16 17 18 19 19 19 19 19 20 21 21 22 22 22 22 23 24 25 25 25 24 24 27 28 29 30 30 30 30 29 29 28 28 27 27 28 29 29 28 28 28 30 31 30 29 27 26 25 25 24 24 23 22 21 21 22 21 20 20 20 19 18 19 20 19 18 17 17
9 10 11 11 10 9 8 7 7 7 8 9 9 10 11 13 15 16 17 17 17 18 18 18 18 19 21 21 22 22 22 23 24 25 25 25 24 23 25 28 29 30 32 33 33 33 32 32 31 31 30 29 29 29 29 29 29 29 29 30 31 32 31 29 28 27 27 26 26 25 23 23 23 22 21 20 20 20 19 20 21 21 20 20 19
11 10 11 12 12 12 11 9 8 8 9 9 9 8 9 10 12 14 15 16 16 16 17 18 19 19 20 20 20 21 22 23 23 23 23 22 21 22 26 29 30 31 32 34 35 35 35 35 35 34 33 32 31 30 30 30 30 30 30 30 30 32 32 32 31 30 29 28 28 27 25 25 25 23 21 19 18 19 19 20 22 22 22 23 22
9 8 9 12 13 14 13 12 11 10 10 10 10 10 9 9 10 12 13 15 15 15 16 17 18 18 18 18 19 20 21 21 20 20 20 20 21 23 26 28 30 31 33 34 35 37 37 38 38 38 37 35 34 33 32 31 31 31 31 31 31 31 32 33 33 32 31 30 29 28 27 27 26 25 22 20 19 20 20 21 22 22 23 24 24
7 8 9 11 13 14 14 13 13 12 11 12 12 11 10 10 11 11 12 13 14 15 15 16 16 16 16 17 17 18 19 18 19 20 20 20 22 24 25 27 29 31 33 34 35 36 37 39 40 40 40 39 38 36 35 34 33 33 33 32 32 33 33 34 34 34 33 32 31 30 29 28 28 26 24 22 21 21 21 21 22 22 22 23 24
8 9 9 9 11 13 13 13 14 13 13 12 12 12 12 12 12 12 11 11 13 14 15 15 15 15 15 16 17 18 18 18 19 20 20 21 23 24 25 27 29 31 33 35 36 36 37 38 40 41 42 42 41 40 39 38 36 35 34 34 34 34 34 35 35 35 35 34 33 32 31 30 29 28 26 24 22 21 21 22 22 22 22 23 23
8 8 9 9 10 11 12 13 14 14 13 13 13 13 13 13 13 13 12 12 14 15 16 16 16 16 16 17 17 18 18 19 19 20 20 21 23 24 25 27 29 31 33 35 36 37 37 38 39 41 42 42 43 43 42 41 40 39 37 37 36 36 36 37 37 37 37 36 35 34 33 32 31 29 27 25 24 24 23 23 23 23 23 23 23
8 7 7 8 9 11 12 13 14 14 13 13 14 14 14 14 14 14 14 14 15 16 16 17 17 17 17 17 18 19 19 19 19 20 20 21 22 24 26 27 31 33 34 35 37 38 38 39 40 41 42 42 43 44 44 44 43 42 41 40 39 38 38 39 39 39 38 38 37 36 34 33 32 31 29 27 27 26 25 25 24 24 24 23 23
10 9 7 7 7 9 11 12 13 14 14 14 15 15 15 16 15 15 15 16 16 17 17 18 18 18 18 18 18 19 19 19 19 20 20 21 22 24 26 28 31 33 35 36 37 38 39 40 42 43 43 44 44 44 44 44 44 44 43 42 41 40 39 39 39 39 39 38 38 37 34 32 32 31 29 28 27 25 24 24 24 24 24 24 24
11 11 10 8 7 8 9 11 12 13 14 15 16 16 17 16 16 17 18 18 19 19 19 19 19 19 18 18 19 20 20 19 19 19 20 21 22 24 25 27 30 33 34 35 37 38 40 41 42 43 44 45 46 45 44 43 44 45 45 44 43 42 40 38 38 39 38 38 38 37 35 33 31 29 28 27 25 23 23 24 24 23 23 24 25
12 12 11 9 8 8 8 10 12 13 15 16 17 18 18 18 17 18 19 19 19 20 20 20 20 19 19 19 20 21 21 19 19 19 20 20 22 24 25 27 29 32 33 35 37 39 40 39 38 39 41 43 45 46 45 43 44 47 48 46 45 44 43 39 37 38 38 37 37 37 36 35 32 30 29 27 26 25 25 25 24 23 24 25 25
14 14 12 9 6 6 7 9 11 13 15 17 18 18 18 18 18 19 20 19 18 19 20 20 19 19 20 21 20 21 21 19 19 19 20 21 22 24 25 26 28 30 32 34 36 36 37 36 36 36 37 39 40 43 44 44 45 47 48 48 47 47 46 41 38 37 37 38 38 37 36 36 34 31 29 28 27 27 27 26 25 24 25 25 25
15 16 15 12 7 6 7 9 11 13 15 15 16 17 17 18 18 19 19 19 19 19 19 19 19 20 21 21 20 20 20 19 19 20 21 21 22 24 25 26 27 29 31 33 34 36 36 37 36 35 37 38 39 40 42 44 45 47 48 49 50 50 47 43 39 36 36 37 37 36 36 35 33 31 30 29 29 28 28 29 28 26 25 25 25
17 17 17 15 12 9 9 10 13 14 14 14 14 16 17 18 19 18 18 19 19 19 19 19 20 21 21 20 19 19 20 20 20 20 21 21 22 23 25 26 26 27 30 31 32 34 36 36 36 35 35 35 37 39 42 43 44 45 47 49 51 50 48 44 39 35 34 35 35 36 36 33 31 31 31 30 29 29 29 29 28 26 25 26 27
19 19 17 15 13 12 12 13 15 15 13 12 14 15 15 17 18 19 19 19 20 20 19 20 20 21 20 19 19 19 19 20 20 21 21 21 21 22 24 24 24 25 27 29 31 33 34 33 33 33 31 30 31 34 39 43 43 43 45 47 48 48 47 45 40 37 36 35 35 36 36 33 30 30 31 31 29 29 29 28 26 25 26 27 28
18 18 17 15 14 14 15 15 16 17 15 13 13 13 14 16 18 19 20 21 21 21 21 20 20 20 19 19 19 19 18 18 19 20 20 19 19 20 21 22 22 22 24 26 29 30 31 30 28 26 24 24 25 27 32 38 41 42 42 43 45 46 46 44 42 40 37 35 34 35 35 34 31 30 30 29 28 27 27 26 25 25 27 28 29
16 16 15 16 17 16 17 17 18 18 17 15 14 14 15 16 17 19 21 22 23 23 23 22 21 21 21 19 19 17 17 17 18 19 19 18 19 19 19 20 20 20 22 24 26 26 27 27 26 23 22 22 24 25 27 31 37 40 41 41 44 47 46 43 41 39 36 33 32 33 33 33 31 29 28 27 26 26 25 25 26 27 28 29 30
14 13 11 13 15 16 16 17 17 18 17 17 17 16 16 17 18 19 21 23 24 25 24 23 23 22 22 21 20 17 15 15 17 18 18 18 18 19 19 19 19 19 21 22 22 22 22 22 22 23 23 24 24 25 27 29 33 39 42 42 44 47 46 41 38 37 34 31 31 31 32 31 28 26 26 25 24 24 25 26 28 29 29 29 29
14 11 9 9 11 13 14 14 15 16 17 19 19 17 16 16 17 18 20 22 24 25 25 25 25 24 23 22 21 18 16 15 16 16 15 17 18 19 19 19 18 18 19 18 17 18 17 17 17 19 21 23 26 27 27 27 30 36 39 40 41 44 44 39 35 35 33 30 29 30 30 29 27 25 25 25 25 26 27 28 28 28 28 28 27
13 11 9 8 10 13 14 14 15 17 18 19 19 18 18 18 18 18 19 20 21 22 24 25 25 25 24 24 22 20 18 17 15 14 14 16 17 18 18 18 18 18 18 17 15 15 15 15 16 17 20 24 27 29 28 26 29 34 38 40 40 41 42 39 35 33 30 27 27 27 29 28 27 26 27 27 27 27 27 27 27 27 26 26 26
11 9 9 9 11 13 13 15 17 18 20 21 22 21 20 20 21 21 20 20 20 20 21 22 22 22 23 23 23 21 19 18 15 13 13 15 17 17 17 17 17 17 18 17 16 15 15 15 16 18 20 22 20 23 26 25 27 31 36 39 38 37 36 35 32 30 28 28 28 27 27 26 26 27 27 27 27 26 25 25 25 25 24 24 25
9 9 10 11 13 15 15 14 15 17 19 21 23 23 22 22 23 24 23 22 21 22 22 21 21 21 21 22 22 22 20 18 15 14 14 15 16 17 17 17 17 17 17 17 17 15 15 15 16 16 18 19 14 17 24 25 24 24 24 25 26 28 29 30 30 30 29 28 27 26 25 25 25 25 25 25 26 25 24 24 23 23 23 24 24
12 11 12 13 15 17 18 16 14 15 16 17 20 24 25 25 25 26 26 24 23 23 24 24 23 22 22 21 21 22 22 19 17 16 15 15 16 16 16 17 17 17 16 16 16 16 15 15 14 14 14 14 11 13 22 25 23 21 18 15 16 18 20 23 25 26 26 25 24 24 24 25 25 25 25 25 24 23 22 22 22 22 23 23 22
17 14 14 15 17 19 21 21 19 17 16 16 18 20 23 26 27 27 27 27 25 24 25 25 24 23 23 22 20 20 21 20 18 18 17 16 15 15 16 16 16 16 16 16 16 15 15 15 14 13 12 12 8 7 14 17 16 15 15 14 14 16 17 19 21 22 22 22 22 22 23 24 25 25 24 23 22 21 21 21 22 23 22 21 19
21 18 17 18 19 20 22 24 23 22 20 18 18 20 22 24 25 26 26 26 26 25 24 24 24 23 22 21 20 19 19 18 18 18 18 17 17 16 16 16 15 14 15 16 16 16 15 15 15 13 11 11 9 6 8 10 11 12 13 14 15 16 17 18 18 19 20 20 21 22 23 24 24 23 22 21 21 21 21 21 22 22 21 19 17
21 21 21 21 21 21 23 25 26 25 23 21 21 21 22 22 23 23 23 23 24 23 23 24 23 22 21 20 19 19 18 17 17 17 17 17 17 17 16 16 15 14 14 15 16 16 15 15 15 13 11 10 10 9 10 11 11 11 13 14 15 15 16 16 17 18 19 21 22 23 24 23 22 22 21 22 21 20 20 20 21 21 20 18 17
21 22 23 23 23 23 24 26 27 27 25 24 24 24 24 22 21 22 22 22 22 22 21 21 22 21 21 20 19 18 18 17 16 15 15 15 15 16 17 17 16 15 15 14 14 15 15 14 13 13 12 11 12 13 14 14 13 13 14 15 16 17 17 18 20 21 22 23 24 25 24 24 23 23 23 23 22 21 21 20 20 20 20 18 17
21 23 24 24 24 24 25 26 28 28 27 25 25 26 26 23 21 20 20 20 20 21 20 20 19 20 21 21 20 19 19 18 17 15 15 14 14 16 17 18 18 17 16 15 14 14 14 13 12 11 11 11 12 13 14 15 16 16 16 17 18 19 21 22 24 25 26 26 26 26 26 26 25 24 24 23 23 22 22 21 21 21 20 18 17
22 24 25 25 25 24 25 25 27 28 26 25 25 26 27 24 21 19 19 19 19 19 19 18 18 19 20 21 20 19 19 19 19 18 17 16 16 17 18 19 19 19 17 16 15 14 13 13 13 12 11 11 12 12 13 15 16 17 18 18 19 20 22 23 24 25 25 26 26 26 26 27 26 25 24 24 23 23 22 22 21 20 19 17 16
22 24 25 25 24 24 24 25 26 26 25 24 23 24 24 23 21 19 18 18 18 18 18 18 17 17 19 19 19 19 18 19 20 20 19 18 18 18 18 18 17 17 17 16 16 15 14 14 13 13 13 12 12 13 14 15 15 16 16 17 19 20 21 22 22 23 23 24 25 25 26 26 26 25 24 24 23 22 22 21 20 20 18 17 16
23 24 25 25 24 23 23 24 26 26 26 24 21 20 21 20 19 18 18 18 17 17 17 16 16 17 18 18 18 19 19 20 21 22 21 21 20 19 18 16 16 16 15 15 15 15 15 14 14 14 13 13 13 13 15 16 17 17 17 17 17 19 20 20 20 21 22 23 24 24 24 24 24 24 23 23 22 21 21 21 20 20 19 19 19
22 24 25 25 24 23 23 24 25 26 26 24 21 18 17 17 18 18 17 17 17 17 16 16 16 16 16 16 18 20 21 21 22 22 22 22 22 21 19 18 18 17 15 14 14 14 15 15 14 14 14 14 14 14 14 16 17 18 19 18 19 19 19 19 20 21 21 22 22 22 22 23 24 23 23 22 21 21 21 21 20 19 19 20 20
22 23 24 24 24 23 22 23 24 25 25 23 20 17 15 15 15 16 16 17 17 18 17 17 16 15 14 14 16 19 21 21 21 21 21 22 22 22 22 22 21 19 18 16 15 14 14 14 15 15 15 15 15 15 15 15 17 18 19 20 21 21 21 21 21 21 21 21 22 22 22 22 22 22 21 21 20 20 21 20 19 19 19 20 20
22 23 24 24 24 23 23 22 23 23 22 21 19 17 16 14 14 15 16 17 18 18 18 18 18 17 15 14 14 16 19 21 22 22 22 22 22 22 22 23 22 22 21 20 19 16 15 15 15 15 16 16 16 17 17 16 17 18 19 20 21 22 22 22 21 21 21 20 21 22 23 22 22 21 20 20 19 20 20 20 20 20 20 21 22
21 22 23 23 23 24 23 22 22 22 22 21 20 18 17 16 16 17 18 19 18 18 18 18 18 18 17 16 15 16 19 21 23 24 25 24 24 23 22 22 22 22 22 23 21 19 17 16 16 17 17 17 17 18 18 18 18 18 19 20 22 22 23 22 22 21 20 20 20 21 21 21 21 20 19 19 19 20 20 21 21 21 22 23 23
20 21 22 22 23 23 22 20 19 19 19 20 20 19 18 18 17 18 19 20 19 19 19 20 20 19 18 18 17 18 19 21 23 24 26 26 27 26 25 24 22 21 22 23 23 20 19 18 17 17 18 18 18 19 19 19 19 19 20 21 22 22 23 23 22 21 20 20 20 20 19 19 19 19 19 19 20 20 21 22 22 23 24 24 23
19 20 21 22 22 22 21 19 17 16 15 16 17 17 17 17 18 18 19 20 20 20 21 22 22 22 21 21 20 20 20 21 22 24 25 26 28 28 28 26 24 21 22 23 23 22 20 19 18 17 17 17 18 19 20 21 21 21 21 22 22 22 23 23 23 22 21 21 21 20 19 19 19 19 20 20 21 21 22 23 24 24 25 24 23
18 19 20 21 22 22 21 20 18 17 14 13 14 15 16 17 17 18 19 20 21 22 23 24 24 24 24 24 23 23 23 23 23 24 24 25 26 27 28 27 26 23 23 24 25 24 22 20 18 17 16 16 17 18 19 21 22 23 23 23 23 22 22 22 23 23 22 21 21 20 20 19 19 20 20 21 21 22 24 24 24 24 24 23 25
17 18 19 20 21 22 22 22 21 19 16 14 14 14 15 16 17 18 19 20 21 23 24 25 25 26 26 25 25 25 25 24 24 24 24 25 25 25 26 27 27 26 25 25 26 25 24 22 20 19 18 18 18 19 19 21 22 23 24 24 24 23 21 21 22 23 22 22 21 21 21 20 20 20 20 20 21 23 24 24 24 23 23 24 28
16 17 18 18 18 19 19 19 19 18 17 15 14 14 14 15 16 17 18 19 20 22 23 24 25 25 25 24 24 24 24 24 24 24 23 23 24 24 24 25 27 27 26 25 26 26 25 24 22 21 21 21 21 21 22 22 22 22 24 25 25 24 22 21 22 23 23 22 22 22 21 21 20 19 19 19 21 22 24 24 24 22 22 24 28
15 15 16 16 17 16 16 16 16 17 16 16 15 15 15 15 16 17 18 19 20 21 23 24 25 25 25 24 24 23 23 23 22 21 21 21 21 21 21 22 23 24 24 24 25 26 26 26 25 24 24 23 23 23 23 23 22 22 23 24 25 25 24 24 23 23 22 21 21 21 21 21 20 19 19 20 21 22 24 25 24 23 23 25 28
15 14 14 15 17 17 16 16 16 16 16 16 16 16 16 17 17 17 18 18 19 20 21 22 24 25 25 25 25 25 24 22 21 20 20 19 17 17 18 19 21 22 23 24 26 27 27 27 25 24 24 24 23 23 23 23 22 21 21 22 23 25 25 26 25 24 22 21 20 20 20 20 20 20 20 21 22 22 23 25 25 25 25 26 27
13 13 13 14 16 16 16 17 17 16 16 16 16 16 16 16 16 16 16 17 18 18 19 20 21 23 24 25 25 25 24 23 21 20 21 20 17 16 16 18 20 22 23 24 25 26 27 26 23 21 21 22 23 23 23 22 22 21 20 20 20 22 25 27 27 25 24 22 21 21 21 21 21 21 22 22 22 21 21 23 25 26 26 27 27
11 12 12 12 13 14 15 16 16 16 15 15 15 15 16 16 16 16 17 17 18 18 19 19 21 21 22 23 24 25 25 25 24 23 22 21 19 18 17 18 20 22 24 24 24 25 25 23 21 19 18 19 20 22 23 22 21 21 20 19 19 19 22 26 27 26 25 24 23 22 22 22 22 23 23 23 22 21 20 21 23 25 26 26 26
Wind_Direction
258 258 257 255 251 247 245 244 239 235 235 237 239 241 243 245 245 244 243 242 241 240 238 233 228 227 229 235 243 246 245 244 245 246 247 247 246 244 243 244 244 244 242 241 243 246 248 247 245 244 245 244 243 241 241 242 244 242 240 244 250 254 255 254 261 272 275 264 253 245 239 234 229 226 227 227 232 240 243 238 231 231 235 237 236
247 246 245 244 246 246 246 244 240 237 234 234 236 238 240 243 245 246 246 245 244 242 239 235 232 230 228 231 239 245 246 245 242 242 244 247 249 249 249 248 248 248 247 246 246 246 247 248 247 245 245 245 244 241 239 240 243 244 241 243 249 252 253 254 259 271 272 256 245 247 244 237 231 227 229 231 234 239 239 236 234 235 236 234 228
237 235 235 237 239 240 241 242 241 240 238 236 235 235 236 240 244 246 248 250 249 246 244 240 237 235 233 234 238 243 247 250 248 245 243 244 246 248 251 252 253 253 253 252 251 250 249 249 248 247 247 246 244 242 240 240 243 245 244 244 246 248 250 251 255 264 267 256 245 245 245 242 237 234 236 236 236 237 235 233 236 238 238 238 236
237 234 234 235 235 238 241 244 242 240 239 238 236 235 233 235 241 244 247 250 250 250 250 249 245 242 241 240 240 241 242 246 249 249 247 246 244 244 248 254 256 257 257 257 256 255 254 252 250 249 249 249 247 245 242 242 243 244 245 244 244 245 246 248 251 255 259 258 251 246 246 246 243 241 242 241 239 240 240 239 242 246 248 251 256
247 243 241 240 241 244 246 247 245 241 239 238 239 238 233 233 238 240 241 245 248 249 249 249 248 246 244 244 243 243 243 243 245 247 247 247 247 247 250 254 257 258 258 259 258 258 258 256 254 253 252 251 249 248 246 245 244 244 244 243 243 244 245 245 247 249 251 254 254 250 248 247 245 244 245 246 247 249 250 248 250 255 257 259 265
260 252 249 249 250 251 248 247 245 242 242 241 241 241 236 235 238 238 238 241 243 245 246 247 248 247 247 246 245 246 246 245 245 246 247 247 249 252 255 256 258 259 259 259 259 258 258 258 258 257 256 254 251 250 248 247 246 244 242 242 242 244 245 245 246 247 248 250 254 255 252 248 245 244 245 249 252 255 255 254 254 257 261 265 271
269 258 254 254 253 251 249 248 246 243 243 243 243 242 237 239 241 240 240 242 242 243 245 245 245 246 247 247 246 247 248 248 248 248 248 248 249 251 255 258 260 261 262 261 260 259 258 257 258 258 258 257 255 253 251 250 249 247 244 242 241 243 245 245 246 247 248 250 252 255 255 251 249 248 249 253 256 257 257 256 256 258 262 268 276
280 267 259 258 259 261 262 257 249 243 243 244 246 245 240 240 243 241 240 242 243 243 244 244 244 245 246 245 245 246 248 248 249 248 249 249 249 250 255 258 259 260 261 261 261 260 259 258 256 256 256 256 256 256 255 254 252 250 246 243 242 243 244 245 246 247 249 250 252 254 256 254 251 250 252 255 257 259 260 260 261 261 263 270 277
264 268 268 268 270 273 273 265 253 247 244 245 251 252 245 244 247 245 243 244 245 245 244 243 243 243 244 244 245 247 250 251 252 252 253 252 250 253 258 260 259 257 257 258 259 260 260 259 258 256 254 254 254 256 256 255 254 253 249 245 244 244 244 245 246 246 248 250 252 254 256 254 251 250 251 255 260 263 264 263 264 264 266 270 274
235 252 272 279 280 276 272 267 259 253 250 251 255 256 247 241 244 248 248 247 247 246 243 242 241 242 243 246 248 252 255 256 257 258 257 256 254 255 258 260 259 257 256 256 257 258 259 260 260 259 257 254 253 254 255 254 254 252 250 248 246 246 245 245 245 245 247 249 251 253 254 253 250 247 250 257 263 265 264 264 266 267 268 269 272
231 242 269 284 286 280 272 268 266 262 259 260 262 261 251 239 240 246 249 248 246 244 243 242 241 242 245 248 250 253 255 257 259 260 260 260 260 258 258 259 260 259 258 257 257 257 258 259 261 262 261 258 254 252 252 252 253 252 250 248 247 247 246 245 244 244 246 248 250 250 250 250 248 247 249 256 261 263 264 265 267 268 268 268 269
250 255 269 281 285 283 276 273 272 271 268 266 265 264 257 248 247 250 250 248 245 244 244 244 244 244 246 248 250 252 256 259 263 265 265 264 262 259 258 259 259 259 259 259 258 257 257 257 258 259 260 259 258 256 253 252 252 252 251 249 247 246 246 245 244 244 244 247 249 249 247 246 247 247 248 253 259 263 265 265 265 266 266 266 267
257 267 272 277 280 279 276 275 275 276 275 271 267 263 257 253 253 254 256 254 250 247 247 247 246 247 248 250 252 255 259 263 266 269 268 266 265 263 261 260 260 260 259 260 260 259 258 257 256 256 257 258 258 258 256 254 253 252 252 252 250 247 245 245 245 245 245 246 247 248 246 244 246 248 250 254 259 262 264 265 264 264 265 266 267
255 265 267 270 273 272 271 272 273 275 275 272 268 264 259 256 255 256 257 255 251 250 250 251 252 254 255 257 259 261 263 264 264 266 266 266 267 266 264 263 262 262 261 261 261 261 260 259 257 257 256 256 256 256 256 255 255 253 252 252 251 248 246 245 245 246 246 245 245 245 245 243 245 249 251 254 257 261 264 265 263 263 265 267 268
264 270 267 263 262 264 267 269 269 271 272 272 271 270 268 266 264 263 262 258 255 254 254 255 257 259 262 263 265 266 266 266 266 267 268 268 268 267 266 265 265 265 264 262 262 262 261 260 259 258 257 255 253 253 253 253 254 253 253 252 251 249 247 245 244 245 245 243 242 243 244 244 245 248 251 255 259 263 264 263 261 262 264 265 266
280 285 285 277 265 263 267 269 269 270 271 273 274 274 274 274 273 272 269 266 264 262 260 260 261 262 263 264 264 265 266 268 268 269 270 269 269 268 268 268 268 268 267 266 265 264 263 262 260 259 258 256 253 251 249 249 250 251 251 251 251 251 249 246 244 244 244 243 243 244 246 246 247 249 252 255 259 260 259 257 257 259 261 263 265
304 303 304 300 291 284 281 279 279 277 275 275 276 277 277 275 274 273 271 270 270 269 268 266 265 264 264 264 265 268 270 271 270 271 271 271 271 272 272 273 273 272 272 271 270 268 266 264 262 261 259 257 254 251 248 245 245 246 248 249 250 251 250 247 244 244 245 245 245 246 247 247 247 248 250 252 253 252 251 253 255 258 261 263 267
318 318 316 310 302 300 298 293 290 287 283 280 278 278 278 276 275 273 270 270 270 270 269 266 265 266 268 268 270 272 273 273 272 273 275 276 276 276 276 276 276 276 276 276 275 273 270 266 262 261 261 259 255 251 248 243 241 242 243 244 246 248 248 247 244 244 244 245 246 247 246 244 245 246 246 247 249 250 250 252 254 258 261 264 268
320 319 315 309 297 288 287 285 283 282 280 278 277 276 276 275 275 275 276 276 275 272 271 269 268 268 269 270 272 274 274 275 276 278 280 280 278 279 279 279 279 280 283 284 282 278 273 268 263 260 260 260 257 253 248 242 239 239 240 240 242 245 246 246 245 244 242 243 245 245 242 241 243 244 244 246 250 252 253 253 254 258 262 265 268
319 313 308 303 290 269 266 268 271 272 271 271 270 269 269 270 269 269 272 275 275 274 273 272 270 268 268 270 272 273 275 276 278 281 282 281 280 280 281 280 281 284 287 287 284 278 273 271 269 265 261 259 257 254 249 243 239 238 238 237 238 241 244 245 245 243 240 241 243 242 240 239 239 240 241 245 249 252 254 257 258 259 262 264 268
327 324 320 312 298 282 269 259 261 268 271 270 269 263 260 262 264 265 267 268 268 269 268 268 267 266 267 270 272 275 276 278 280 281 281 281 281 281 282 282 284 287 289 289 286 281 276 272 271 270 267 262 258 253 248 244 240 237 236 237 238 240 242 244 244 241 239 240 240 239 238 238 237 238 241 244 248 251 254 258 259 258 260 265 269
345 347 340 324 301 281 271 261 260 266 272 273 271 263 256 256 261 265 266 265 266 266 265 265 266 267 269 272 275 277 278 279 282 283 282 282 282 282 284 285 287 290 292 291 288 285 282 277 273 271 268 266 262 253 245 241 238 236 235 237 238 239 240 241 241 238 237 238 239 238 238 237 237 241 245 246 248 251 254 255 256 258 263 268 271
353 357 352 337 310 284 275 273 267 265 265 264 263 259 254 256 261 264 264 265 265 265 265 265 266 269 272 274 275 277 278 281 283 285 286 286 286 287 288 288 288 290 293 293 292 290 286 281 278 275 272 271 270 260 246 239 236 235 235 235 236 237 237 237 237 236 235 237 239 240 239 236 235 238 242 245 247 249 252 254 257 262 265 268 271
349 359 356 342 323 301 287 282 273 265 261 258 255 255 255 257 261 263 265 267 266 266 267 268 270 272 273 273 273 275 279 282 284 286 289 289 290 293 292 290 289 290 292 296 299 299 292 283 280 281 280 278 277 270 257 244 237 234 233 232 231 232 233 233 234 235 238 241 242 241 239 236 232 232 237 242 245 247 251 256 260 263 266 268 269
337 354 355 343 329 312 297 286 273 266 265 260 255 255 256 256 260 263 265 267 269 269 270 271 273 275 276 275 275 276 280 283 285 290 294 293 292 293 293 292 291 290 293 298 304 305 300 289 282 280 279 277 275 271 264 254 242 236 233 231 230 231 231 231 231 233 237 241 242 241 240 236 232 230 233 238 242 247 254 259 261 263 265 265 267
322 335 340 336 320 304 297 288 264 250 254 258 258 260 259 257 260 263 264 266 270 273 275 275 275 276 276 277 279 280 283 284 286 292 296 292 293 295 296 298 297 293 294 300 305 308 306 299 290 285 282 278 271 263 260 256 247 241 237 232 230 230 229 227 226 229 232 234 235 238 239 234 230 231 235 240 247 252 257 260 261 262 262 263 264
311 318 317 314 304 295 295 291 268 247 243 249 256 263 264 262 261 262 263 266 271 276 279 280 281 281 281 280 281 282 283 284 288 296 294 290 294 300 301 302 302 300 298 299 304 309 312 311 304 297 295 290 274 257 251 252 249 242 235 230 229 230 229 225 224 226 227 226 226 231 235 234 233 238 244 249 253 256 257 258 259 260 261 261 262
301 304 299 293 293 293 293 290 279 265 255 252 254 259 263 265 264 263 264 267 272 278 281 283 285 287 287 285 281 280 280 282 287 294 292 289 294 300 302 303 304 305 303 301 302 308 314 317 313 306 309 310 286 250 240 245 244 234 224 219 221 223 222 219 218 218 219 221 223 229 238 242 243 245 249 252 254 256 257 257 258 259 259 258 257
287 284 284 280 281 286 290 292 288 282 276 269 262 258 260 266 268 268 268 268 269 272 275 278 282 284 286 285 282 278 277 278 281 285 288 290 293 297 300 303 304 306 306 303 302 306 308 311 314 312 317 324 304 245 230 234 237 229 217 208 206 207 206 207 211 214 217 222 226 233 242 248 247 247 249 251 253 255 256 256 256 255 254 252 251
290 277 273 273 272 275 282 290 297 299 297 289 276 265 261 263 267 270 272 274 273 271 270 272 276 278 280 283 283 278 274 274 275 279 283 286 288 291 296 300 302 304 305 303 302 304 304 305 310 313 315 319 304 242 226 228 229 223 214 203 197 200 204 209 215 220 225 231 235 238 241 244 247 249 250 250 252 254 253 252 251 252 251 249 247
294 284 273 271 273 275 279 285 293 300 305 304 296 284 273 268 267 269 272 274 276 275 272 270 272 274 277 281 284 281 276 273 272 274 276 278 282 286 290 294 296 299 301 300 300 302 304 303 304 307 307 311 307 245 226 228 221 209 206 207 207 211 217 220 224 229 233 235 237 238 240 244 247 249 249 250 251 252 250 248 246 246 244 241 239
289 286 279 275 275 277 279 283 288 294 300 304 304 299 292 285 279 275 275 275 275 274 272 270 271 272 274 277 281 281 278 274 272 270 268 269 274 280 284 286 290 292 294 296 298 301 304 304 302 299 296 294 295 273 242 234 221 210 214 219 218 219 223 225 226 229 231 233 236 239 242 245 245 245 246 248 248 247 247 245 242 239 236 235 237
281 282 279 276 275 275 276 280 285 291 298 303 305 303 300 298 294 289 284 282 280 277 272 269 268 269 271 274 277 277 275 273 271 267 264 264 269 274 277 279 281 283 284 289 293 297 300 300 299 297 291 281 277 273 264 255 243 230 226 227 227 227 229 229 229 231 233 237 240 242 242 241 241 242 244 244 244 243 244 243 239 233 230 234 239
274 276 276 275 273 272 272 276 282 288 294 299 303 304 302 299 299 297 293 288 285 282 277 271 266 264 266 271 274 275 272 267 264 264 264 264 267 271 273 273 274 274 275 279 285 291 294 294 294 294 290 280 270 265 264 263 258 249 240 237 236 235 233 232 234 236 239 240 241 241 239 237 238 240 242 242 241 241 241 239 233 227 226 232 238
268 271 273 273 271 269 268 271 277 284 291 296 300 303 302 298 295 295 295 293 288 284 281 277 271 265 263 265 268 272 271 265 260 260 264 267 269 271 272 272 272 271 271 272 275 280 285 287 287 286 284 279 271 264 261 258 255 252 247 244 242 240 239 237 237 239 241 241 240 239 238 237 239 242 243 243 242 240 238 235 229 225 227 233 238
265 268 270 272 272 269 265 265 269 276 284 291 295 298 298 295 291 290 292 293 293 291 289 286 279 270 264 262 263 265 267 265 261 259 261 265 268 270 271 274 276 275 274 274 274 274 276 278 279 278 276 274 270 265 261 258 255 252 249 246 246 246 243 241 240 241 241 240 240 239 239 239 241 244 244 243 242 240 236 232 227 226 229 235 238
262 265 268 271 273 272 267 261 261 266 273 282 289 293 292 289 287 287 289 291 294 297 298 296 290 278 268 263 259 258 259 260 259 257 257 259 263 265 268 273 277 277 276 275 274 274 274 274 273 272 270 268 265 260 257 256 256 256 253 248 246 246 244 242 242 242 242 241 241 241 241 242 243 243 243 241 239 235 230 226 225 227 230 236 241
261 263 266 270 273 276 272 264 259 260 266 274 283 289 289 285 283 285 287 289 293 297 299 300 298 290 279 268 258 252 251 252 253 254 255 256 258 260 264 268 272 274 275 276 274 272 272 271 269 268 267 265 261 256 251 250 251 253 254 251 248 246 243 241 241 242 243 243 243 243 243 243 242 240 237 235 233 230 226 224 225 228 231 236 241
262 264 266 269 273 276 276 271 266 264 268 273 279 286 290 288 284 283 285 288 291 293 293 293 294 294 291 279 261 252 251 251 253 257 258 257 257 259 261 263 264 266 269 272 272 271 271 270 268 268 266 265 263 259 253 249 246 246 247 248 248 247 244 240 239 240 242 243 243 242 242 241 239 235 231 228 226 226 227 228 230 232 236 241 245
264 265 266 269 273 276 277 275 271 269 270 273 277 282 287 289 286 284 286 289 291 291 291 290 289 291 293 283 268 261 260 259 260 262 263 262 262 263 263 262 262 263 266 269 269 269 269 268 266 265 263 262 263 262 259 255 249 245 244 244 245 245 243 240 240 242 244 245 245 243 241 239 238 236 234 231 228 228 230 233 236 240 245 249 252
266 266 267 269 273 276 277 276 272 270 271 274 276 277 281 285 284 283 285 287 290 291 292 292 290 290 290 285 278 273 270 265 262 261 261 261 263 266 267 267 265 262 261 264 266 268 268 267 265 262 260 258 259 260 260 259 255 250 247 244 243 243 242 240 241 244 246 246 246 244 239 236 234 235 235 234 232 232 234 237 241 246 250 252 254
268 266 267 268 271 274 277 278 276 273 272 273 274 275 277 280 281 282 283 285 287 291 293 293 294 294 293 290 285 278 272 266 263 261 260 260 262 265 266 268 268 265 262 261 262 264 266 265 263 261 257 254 254 255 256 258 258 256 254 250 247 245 242 241 242 244 243 241 241 241 238 234 231 231 233 234 235 237 238 240 244 248 250 252 252
268 265 266 267 269 273 278 281 283 280 277 276 275 275 277 279 281 282 283 284 287 291 294 296 297 298 297 295 291 284 278 273 270 267 264 263 263 263 263 263 265 265 263 259 258 258 260 261 261 260 258 254 252 251 252 254 254 254 253 253 251 249 246 242 240 240 239 236 235 233 232 230 230 232 234 236 238 239 240 242 246 249 251 251 245
270 269 268 267 267 271 276 279 283 285 283 280 276 274 275 280 283 283 283 284 288 292 296 298 300 302 302 301 299 294 289 284 278 273 270 266 264 262 262 262 262 261 259 255 252 251 253 255 255 255 255 254 251 250 250 251 251 250 250 250 250 249 246 241 237 236 236 235 232 230 230 232 235 238 240 241 241 241 241 244 247 249 250 247 233
274 273 272 269 268 270 272 276 283 288 287 283 280 278 280 284 286 286 285 285 287 291 294 296 300 302 304 304 304 303 301 296 288 281 275 272 268 264 261 260 259 257 253 250 247 245 246 247 247 247 249 251 252 252 252 251 251 250 249 249 249 250 247 241 236 235 235 234 233 233 236 240 244 246 246 244 243 243 243 245 247 248 247 238 221
275 274 275 275 274 274 275 278 283 286 286 285 285 285 286 287 287 286 286 286 287 289 292 294 298 301 303 306 307 306 305 303 298 290 282 276 272 268 263 259 257 254 251 248 245 243 242 242 242 243 246 249 251 253 254 254 253 252 250 248 248 249 247 241 235 234 234 235 237 239 242 245 248 249 247 245 245 244 244 244 245 245 241 230 216
275 276 278 280 280 280 280 281 284 287 289 288 287 287 288 289 289 288 287 286 287 288 291 293 296 298 300 302 304 303 302 301 300 295 288 280 276 273 269 264 260 256 252 249 246 244 244 244 244 246 247 249 250 253 255 257 257 256 253 249 247 246 245 241 237 234 234 235 238 242 245 246 246 245 244 244 246 245 242 241 240 239 234 223 212
282 281 281 282 284 284 283 284 287 290 291 289 288 287 287 287 288 288 288 287 287 289 291 292 293 294 295 296 296 295 294 294 294 292 287 282 280 278 277 273 267 260 254 250 247 245 244 244 247 249 250 250 250 251 254 257 260 259 254 249 247 244 242 241 240 238 237 236 238 240 241 241 241 242 243 246 248 246 242 237 234 231 226 217 210
290 289 286 284 284 284 285 286 287 289 290 289 287 287 287 288 289 290 291 292 293 293 293 293 293 294 295 295 295 292 289 287 286 282 278 276 276 277 278 277 271 262 255 250 248 245 243 244 247 250 251 251 251 252 253 256 259 259 254 249 246 243 240 238 239 240 240 239 237 236 235 236 239 242 245 246 248 246 241 235 230 226 222 217 214
302 298 297 293 291 290 291 289 287 286 288 289 289 289 290 292 293 295 298 300 300 298 296 295 294 294 295 295 293 291 288 285 282 277 272 269 268 267 269 270 269 264 258 253 250 246 242 240 241 243 246 249 251 253 254 256 257 256 253 250 248 244 238 235 235 237 238 236 232 230 232 235 239 242 244 243 241 237 233 229 226 223 221 221 222
322 316 313 310 307 306 303 298 293 290 289 291 292 292 293 296 298 301 302 303 302 301 299 297 296 296 296 294 292 290 288 285 281 276 270 264 261 259 259 262 264 262 259 256 254 247 239 232 232 236 242 246 249 251 252 253 253 253 251 249 249 246 240 234 233 234 235 233 230 230 233 235 237 240 240 236 230 226 225 225 224 223 223 225 228
Height
1520 1522 1523 1524 1525 1526 1527 1528 1528 1529 1530 1530 1532 1533 1534 1535 1537 1538 1539 1540 1541 1542 1543 1543 1544 1545 1547 1550 1552 1553 1555 1556 1557 1559 1560 1561 1562 1563 1563 1564 1564 1564 1564 1565 1566 1566 1567 1568 1569 1570 1571 1572 1573 1574 1575 1576 1577 1577 1578 1579 1580 1581 1581 1582 1582 1581 1582 1583 1584 1584 1585 1585 1586 1586 1587 1587 1588 1588 1588 1589 1589 1589 1590 1590 1590
1519 1521 1522 1523 1524 1525 1525 1526 1526 1527 1528 1528 1529 1530 1532 1534 1536 1536 1536 1538 1539 1540 1540 1541 1542 1543 1544 1546 1549 1551 1552 1554 1555 1556 1557 1559 1560 1561 1562 1562 1562 1562 1563 1563 1564 1565 1565 1566 1567 1568 1569 1570 1570 1572 1573 1574 1574 1575 1576 1577 1578 1579 1579 1580 1580 1580 1581 1582 1582 1583 1583 1584 1584 1585 1586 1586 1587 1587 1587 1588 1588 1588 1589 1589 1589
1519 1520 1521 1522 1522 1523 1523 1524 1524 1525 1525 1526 1527 1528 1530 1533 1534 1534 1535 1536 1537 1537 1538 1539 1540 1541 1542 1543 1544 1546 1549 1551 1552 1553 1553 1555 1557 1559 1560 1560 1560 1560 1561 1561 1562 1563 1563 1563 1564 1565 1566 1567 1568 1569 1570 1571 1572 1573 1574 1575 1576 1577 1577 1578 1578 1579 1579 1580 1581 1582 1582 1583 1583 1584 1585 1585 1585 1586 1586 1587 1587 1587 1588 1588 1588
1518 1519 1520 1521 1521 1521 1522 1522 1522 1522 1523 1523 1524 1525 1528 1531 1531 1532 1533 1534 1534 1535 1536 1537 1538 1539 1540 1541 1541 1543 1544 1547 1549 1550 1551 1552 1553 1554 1556 1557 1558 1558 1558 1559 1559 1560 1560 1561 1561 1563 1564 1564 1565 1566 1568 1569 1569 1570 1571 1572 1573 1574 1575 1576 1576 1577 1578 1578 1579 1580 1581 1581 1582 1583 1583 1583 1584 1584 1585 1585 1585 1586 1586 1586 1586
1519 1519 1519 1520 1520 1520 1520 1520 1520 1520 1520 1521 1522 1523 1527 1529 1528 1528 1530 1530 1531 1532 1533 1534 1534 1535 1537 1538 1539 1540 1541 1543 1545 1547 1549 1550 1550 1551 1552 1554 1555 1555 1556 1556 1557 1557 1557 1558 1559 1560 1560 1561 1562 1563 1564 1566 1567 1568 1569 1570 1571 1572 1573 1574 1574 1575 1575 1576 1577 1578 1579 1580 1580 1581 1581 1582 1582 1583 1583 1583 1584 1584 1584 1584 1585
1519 1519 1519 1519 1519 1519 1519 1519 1519 1519 1519 1519 1520 1521 1524 1526 1525 1525 1527 1527 1528 1529 1530 1531 1531 1532 1534 1535 1536 1538 1539 1540 1541 1543 1545 1546 1547 1548 1549 1551 1552 1552 1553 1553 1554 1554 1554 1555 1556 1557 1557 1558 1558 1560 1561 1562 1564 1565 1565 1567 1568 1569 1570 1571 1572 1573 1573 1574 1575 1576 1577 1577 1578 1579 1579 1580 1580 1580 1581 1581 1582 1582 1582 1582 1583
1520 1520 1519 1519 1519 1518 1518 1518 1518 1518 1518 1518 1518 1519 1522 1523 1523 1524 1526 1526 1526 1527 1527 1528 1529 1530 1531 1532 1534 1535 1536 1537 1539 1540 1542 1543 1544 1545 1546 1548 1549 1549 1549 1550 1550 1551 1551 1551 1552 1553 1554 1554 1555 1556 1558 1559 1560 1561 1562 1564 1565 1566 1567 1568 1569 1570 1571 1571 1572 1573 1574 1575 1576 1576 1577 1577 1578 1578 1579 1579 1579 1580 1580 1580 1581
1518 1519 1519 1518 1518 1518 1517 1517 1517 1517 1517 1517 1517 1517 1519 1521 1521 1522 1523 1523 1524 1525 1526 1526 1527 1528 1529 1530 1531 1532 1533 1534 1535 1537 1538 1540 1541 1543 1544 1545 1545 1545 1545 1546 1546 1547 1547 1548 1548 1549 1550 1550 1552 1553 1554 1555 1556 1557 1559 1560 1562 1563 1564 1565 1566 1567 1568 1568 1569 1570 1571 1572 1573 1573 1574 1575 1575 1575 1576 1577 1577 1577 1578 1578 1578
1513 1515 1516 1516 1516 1516 1516 1516 1515 1515 1515 1515 1516 1516 1517 1518 1519 1519 1520 1521 1522 1523 1524 1524 1525 1525 1526 1527 1529 1529 1530 1531 1532 1533 1535 1536 1539 1540 1541 1541 1541 1541 1541 1541 1542 1542 1542 1543 1544 1544 1545 1546 1547 1549 1550 1551 1552 1553 1555 1556 1558 1559 1560 1561 1562 1563 1564 1565 1566 1567 1568 1568 1569 1570 1571 1572 1572 1573 1574 1574 1574 1575 1576 1575 1575
1507 1510 1512 1514 1514 1514 1514 1514 1514 1514 1514 1514 1514 1515 1516 1516 1516 1517 1518 1519 1520 1521 1521 1522 1523 1523 1524 1525 1526 1526 1527 1528 1529 1530 1532 1534 1535 1536 1536 1537 1537 1537 1537 1536 1537 1537 1537 1538 1538 1540 1541 1542 1543 1544 1545 1547 1548 1549 1551 1552 1553 1555 1556 1557 1558 1559 1560 1561 1562 1563 1564 1564 1566 1567 1568 1569 1570 1571 1571 1571 1571 1572 1573 1572 1572
1506 1508 1510 1512 1512 1513 1513 1513 1512 1512 1512 1512 1513 1513 1514 1515 1515 1515 1516 1517 1518 1519 1519 1520 1520 1521 1522 1523 1523 1524 1524 1525 1526 1527 1529 1530 1530 1531 1532 1533 1534 1533 1532 1532 1532 1532 1532 1533 1533 1534 1536 1537 1538 1539 1540 1542 1543 1544 1546 1547 1549 1550 1551 1552 1554 1555 1556 1557 1558 1559 1560 1560 1562 1564 1565 1566 1567 1568 1568 1569 1569 1569 1570 1569 1569
1507 1507 1508 1510 1511 1511 1511 1511 1511 1511 1511 1512 1512 1512 1513 1513 1514 1514 1515 1515 1516 1517 1517 1518 1518 1519 1520 1520 1521 1521 1522 1522 1523 1523 1524 1524 1525 1526 1528 1529 1529 1528 1528 1527 1527 1527 1527 1528 1528 1529 1530 1531 1533 1534 1535 1537 1538 1540 1541 1542 1544 1545 1547 1548 1549 1550 1552 1553 1554 1555 1556 1557 1558 1560 1562 1563 1564 1565 1565 1566 1566 1566 1566 1566 1566
1504 1505 1506 1507 1509 1510 1510 1510 1510 1510 1510 1510 1511 1511 1512 1512 1513 1513 1513 1514 1515 1515 1516 1516 1517 1517 1518 1518 1518 1519 1519 1519 1520 1520 1520 1520 1521 1522 1523 1524 1523 1523 1522 1521 1521 1522 1522 1523 1523 1524 1525 1526 1527 1529 1530 1532 1533 1535 1536 1538 1539 1540 1542 1543 1545 1546 1547 1548 1549 1550 1552 1553 1555 1556 1558 1560 1561 1561 1562 1562 1562 1563 1563 1563 1563
1501 1501 1502 1504 1506 1507 1508 1508 1508 1509 1509 1509 1509 1510 1510 1511 1511 1512 1512 1512 1513 1513 1514 1515 1515 1515 1515 1516 1516 1516 1516 1517 1517 1517 1517 1517 1518 1518 1518 1518 1518 1517 1516 1516 1516 1516 1516 1517 1517 1518 1519 1520 1522 1523 1524 1526 1528 1529 1531 1532 1533 1535 1536 1538 1540 1541 1543 1544 1544 1545 1548 1550 1551 1553 1555 1556 1557 1557 1558 1558 1559 1559 1559 1559 1560
1500 1500 1500 1501 1503 1504 1505 1506 1506 1507 1507 1507 1507 1508 1508 1509 1509 1510 1510 1510 1510 1511 1511 1512 1512 1512 1513 1513 1513 1513 1513 1514 1514 1513 1513 1514 1514 1514 1513 1513 1512 1511 1511 1510 1510 1510 1511 1511 1511 1511 1512 1514 1515 1517 1519 1520 1522 1524 1525 1526 1528 1530 1531 1532 1534 1536 1538 1539 1540 1541 1544 1546 1547 1549 1551 1552 1553 1554 1554 1555 1555 1556 1556 1556 1556
1501 1500 1500 1500 1501 1502 1503 1504 1504 1504 1505 1505 1505 1506 1506 1507 1507 1508 1508 1508 1508 1508 1508 1509 1509 1509 1509 1510 1510 1510 1510 1510 1510 1510 1510 1510 1509 1509 1509 1508 1507 1506 1505 1505 1505 1504 1505 1505 1505 1505 1505 1506 1508 1511 1513 1515 1516 1517 1518 1520 1522 1524 1525 1527 1529 1531 1533 1535 1536 1538 1540 1542 1544 1546 1547 1548 1549 1550 1551 1551 1551 1552 1552 1552 1552
1500 1500 1500 1500 1500 1501 1501 1502 1503 1503 1503 1503 1503 1504 1504 1504 1505 1506 1506 1506 1506 1506 1506 1506 1506 1506 1506 1507 1506 1506 1506 1507 1507 1506 1506 1506 1505 1504 1504 1503 1502 1500 1499 1499 1499 1498 1498 1498 1498 1498 1498 1499 1501 1504 1507 1509 1510 1511 1512 1514 1516 1518 1520 1522 1525 1527 1529 1531 1533 1535 1537 1538 1540 1542 1543 1545 1545 1546 1547 1547 1548 1548 1548 1548 1549
1499 1498 1497 1497 1498 1499 1500 1501 1501 1501 1501 1501 1501 1501 1502 1502 1503 1503 1503 1503 1503 1504 1504 1503 1503 1503 1504 1504 1504 1503 1503 1503 1503 1503 1502 1501 1500 1499 1499 1498 1497 1495 1494 1494 1493 1492 1491 1491 1492 1492 1491 1492 1494 1497 1500 1503 1504 1504 1506 1508 1510 1511 1513 1517 1520 1522 1524 1527 1528 1530 1532 1534 1535 1537 1539 1540 1542 1542 1543 1543 1544 1545 1545 1545 1545
1495 1494 1493 1493 1494 1495 1496 1497 1498 1498 1498 1497 1498 1499 1499 1500 1500 1500 1500 1500 1500 1500 1500 1500 1500 1500 1501 1501 1501 1500 1500 1500 1500 1499 1498 1497 1496 1495 1494 1493 1492 1491 1490 1488 1487 1486 1485 1484 1485 1486 1486 1486 1487 1489 1492 1495 1497 1498 1500 1502 1503 1504 1507 1511 1515 1517 1519 1521 1523 1525 1527 1529 1531 1533 1535 1537 1538 1539 1539 1540 1541 1541 1541 1541 1542
1491 1491 1491 1492 1492 1492 1492 1492 1492 1492 1492 1493 1494 1495 1496 1496 1497 1497 1496 1496 1496 1497 1497 1496 1497 1497 1498 1498 1497 1497 1496 1496 1496 1495 1494 1493 1492 1491 1490 1489 1487 1486 1485 1484 1482 1480 1479 1478 1478 1479 1480 1480 1481 1483 1485 1487 1490 1492 1494 1496 1496 1498 1502 1507 1510 1513 1515 1517 1519 1520 1522 1524 1526 1528 1531 1533 1534 1535 1536 1536 1537 1537 1537 1538 1538
1490 1490 1490 1491 1491 1491 1489 1487 1486 1487 1488 1488 1489 1490 1491 1492 1492 1493 1493 1493 1493 1493 1493 1493 1493 1493 1494 1494 1493 1493 1493 1492 1492 1491 1490 1490 1489 1487 1486 1485 1484 1483 1481 1479 1478 1475 1474 1473 1473 1473 1474 1474 1475 1476 1477 1480 1482 1485 1487 1489 1490 1494 1498 1502 1506 1508 1510 1512 1514 1515 1517 1519 1522 1524 1526 1528 1529 1531 1532 1532 1533 1533 1534 1534 1535
1490 1489 1488 1489 1489 1488 1486 1484 1484 1484 1485 1486 1486 1486 1487 1488 1489 1489 1489 1489 1489 1489 1489 1489 1489 1489 1490 1490 1490 1490 1489 1489 1488 1487 1486 1486 1485 1484 1483 1481 1481 1480 1478 1476 1474 1471 1470 1469 1468 1469 1469 1468 1469 1469 1470 1473 1476 1479 1481 1484 1487 1491 1494 1497 1500 1503 1505 1506 1509 1510 1513 1516 1518 1520 1522 1523 1525 1526 1528 1529 1529 1530 1530 1531 1531
1489 1488 1487 1486 1486 1485 1484 1483 1483 1483 1483 1483 1483 1483 1484 1485 1485 1486 1486 1486 1486 1486 1486 1486 1486 1486 1486 1486 1486 1487 1486 1486 1485 1484 1483 1482 1482 1481 1480 1479 1478 1477 1475 1472 1470 1468 1466 1465 1465 1464 1464 1463 1463 1464 1465 1467 1470 1473 1476 1480 1484 1487 1489 1491 1494 1497 1499 1502 1505 1507 1509 1512 1514 1515 1517 1519 1521 1523 1524 1525 1526 1526 1527 1527 1527
1488 1487 1486 1484 1483 1483 1482 1482 1482 1481 1481 1481 1480 1481 1481 1482 1482 1483 1484 1484 1483 1483 1483 1484 1483 1483 1483 1483 1483 1484 1483 1483 1482 1481 1480 1479 1479 1478 1477 1476 1475 1474 1472 1470 1468 1465 1464 1462 1462 1461 1460 1459 1459 1460 1461 1463 1465 1468 1471 1475 1478 1480 1483 1486 1490 1493 1496 1499 1501 1503 1505 1507 1509 1511 1513 1516 1518 1520 1521 1521 1522 1522 1522 1522 1523
1487 1486 1484 1483 1481 1480 1480 1480 1480 1480 1480 1480 1479 1478 1479 1479 1480 1480 1481 1481 1481 1481 1481 1481 1481 1481 1481 1480 1480 1481 1481 1480 1479 1479 1478 1477 1476 1475 1474 1473 1472 1471 1469 1468 1466 1463 1461 1459 1458 1457 1456 1455 1455 1456 1457 1458 1461 1463 1466 1469 1472 1475 1478 1482 1486 1490 1493 1495 1498 1500 1502 1504 1506 1508 1510 1512 1514 1515 1516 1517 1518 1518 1518 1518 1518
1485 1484 1483 1481 1480 1478 1477 1477 1477 1477 1477 1477 1477 1477 1476 1476 1477 1477 1477 1478 1478 1479 1479 1479 1479 1478 1478 1478 1478 1478 1478 1478 1477 1476 1475 1474 1473 1472 1471 1470 1469 1468 1466 1465 1463 1461 1459 1457 1455 1453 1452 1451 1450 1451 1452 1454 1456 1458 1461 1464 1467 1469 1473 1477 1481 1484 1487 1490 1494 1497 1499 1500 1503 1505 1507 1508 1510 1511 1512 1513 1513 1513 1514 1514 1514
1483 1482 1481 1480 1478 1477 1476 1475 1475 1474 1474 1474 1475 1475 1475 1474 1474 1474 1474 1475 1476 1476 1477 1477 1476 1476 1476 1475 1475 1475 1475 1475 1475 1474 1473 1472 1471 1470 1469 1467 1466 1465 1464 1462 1460 1458 1456 1455 1452 1450 1449 1446 1444 1444 1446 1449 1452 1453 1454 1457 1460 1464 1468 1473 1477 1480 1483 1486 1490 1493 1495 1497 1499 1501 1502 1503 1505 1506 1507 1508 1508 1509 1509 1509 1510
1481 1480 1480 1478 1476 1475 1474 1473 1473 1472 1472 1472 1472 1472 1472 1472 1472 1471 1472 1473 1473 1474 1474 1474 1474 1474 1473 1473 1472 1472 1472 1472 1472 1472 1471 1469 1468 1467 1466 1465 1464 1462 1461 1459 1457 1455 1454 1452 1450 1448 1446 1443 1441 1441 1444 1446 1448 1449 1449 1450 1454 1459 1464 1469 1473 1476 1479 1483 1486 1489 1491 1493 1495 1496 1498 1499 1500 1501 1502 1503 1504 1504 1505 1505 1506
1479 1479 1478 1477 1475 1473 1472 1471 1471 1471 1470 1470 1470 1469 1470 1470 1469 1469 1470 1470 1471 1471 1471 1471 1471 1471 1470 1470 1469 1469 1468 1469 1469 1469 1468 1467 1466 1465 1463 1462 1461 1460 1458 1457 1455 1453 1452 1450 1448 1447 1446 1444 1442 1443 1445 1446 1448 1449 1449 1450 1453 1457 1461 1466 1470 1473 1476 1479 1482 1484 1488 1491 1492 1492 1493 1494 1495 1496 1497 1498 1499 1500 1501 1502 1502
1478 1477 1475 1475 1473 1472 1470 1469 1469 1469 1468 1467 1467 1467 1467 1467 1467 1467 1467 1468 1468 1468 1468 1468 1468 1468 1467 1467 1467 1466 1466 1466 1466 1465 1465 1464 1463 1462 1461 1460 1459 1458 1457 1455 1454 1452 1450 1448 1447 1446 1446 1445 1445 1445 1446 1446 1447 1448 1450 1452 1454 1458 1461 1464 1468 1471 1474 1476 1478 1481 1484 1487 1488 1488 1489 1490 1491 1492 1493 1494 1496 1497 1497 1498 1498
1475 1474 1473 1472 1471 1470 1468 1467 1467 1466 1466 1465 1465 1464 1463 1464 1464 1464 1464 1464 1465 1465 1465 1464 1464 1465 1464 1464 1464 1463 1463 1463 1462 1462 1462 1461 1461 1460 1459 1458 1457 1456 1455 1454 1452 1451 1450 1448 1446 1446 1446 1446 1446 1446 1447 1447 1447 1448 1450 1452 1455 1458 1461 1463 1466 1469 1471 1473 1476 1478 1481 1483 1484 1484 1485 1485 1486 1487 1489 1491 1492 1493 1493 1494 1495
1471 1471 1471 1470 1469 1468 1467 1465 1464 1464 1464 1464 1463 1462 1461 1460 1460 1461 1461 1461 1461 1461 1461 1461 1461 1462 1461 1461 1460 1460 1460 1460 1459 1459 1458 1458 1457 1457 1456 1455 1454 1454 1453 1452 1451 1450 1449 1448 1446 1445 1445 1445 1446 1447 1447 1447 1447 1449 1451 1453 1455 1457 1459 1462 1464 1467 1469 1471 1473 1475 1477 1478 1479 1480 1480 1481 1483 1484 1485 1487 1488 1489 1490 1491 1491
1468 1468 1467 1467 1466 1465 1464 1463 1462 1462 1461 1461 1461 1460 1459 1458 1457 1457 1457 1457 1457 1457 1457 1457 1458 1458 1458 1458 1457 1457 1457 1457 1456 1455 1455 1454 1454 1454 1453 1452 1451 1451 1450 1450 1449 1449 1448 1447 1446 1445 1444 1444 1445 1446 1446 1446 1448 1449 1451 1453 1454 1456 1458 1461 1463 1465 1466 1468 1470 1471 1473 1474 1475 1476 1477 1478 1480 1481 1482 1483 1484 1485 1487 1487 1488
1464 1464 1464 1464 1463 1463 1462 1461 1460 1459 1459 1459 1459 1458 1457 1456 1455 1454 1453 1453 1453 1453 1453 1454 1454 1454 1455 1455 1455 1454 1454 1453 1453 1452 1452 1451 1451 1451 1450 1449 1448 1447 1447 1447 1447 1447 1446 1446 1445 1445 1444 1444 1444 1445 1445 1446 1448 1449 1451 1452 1453 1455 1457 1459 1461 1462 1464 1465 1466 1467 1469 1470 1471 1472 1473 1475 1476 1478 1479 1479 1480 1482 1483 1484 1485
1461 1460 1460 1460 1460 1459 1459 1458 1457 1457 1456 1456 1456 1455 1454 1454 1453 1452 1451 1450 1450 1450 1450 1450 1451 1451 1451 1451 1451 1451 1450 1450 1450 1450 1449 1449 1449 1448 1447 1446 1445 1444 1444 1444 1444 1444 1444 1444 1444 1444 1444 1443 1444 1444 1445 1446 1447 1448 1449 1451 1452 1453 1455 1456 1458 1459 1460 1461 1462 1463 1465 1466 1467 1469 1470 1471 1473 1474 1475 1476 1477 1478 1480 1481 1482
1457 1456 1456 1455 1456 1456 1455 1455 1455 1454 1453 1453 1453 1452 1452 1451 1450 1450 1449 1448 1447 1447 1446 1447 1447 1447 1447 1447 1447 1447 1447 1447 1447 1447 1447 1446 1446 1445 1445 1444 1443 1442 1442 1441 1441 1441 1441 1441 1441 1441 1442 1442 1442 1443 1443 1444 1445 1446 1448 1449 1450 1451 1452 1453 1455 1456 1457 1458 1459 1460 1461 1463 1464 1465 1467 1468 1469 1470 1472 1473 1474 1476 1477 1478 1480
1453 1453 1452 1451 1451 1451 1451 1451 1451 1450 1450 1450 1450 1449 1449 1448 1447 1447 1446 1446 1445 1444 1444 1444 1443 1443 1443 1443 1443 1443 1443 1444 1444 1444 1444 1443 1443 1442 1441 1441 1441 1440 1439 1439 1439 1439 1439 1439 1439 1439 1439 1440 1440 1441 1441 1442 1443 1444 1445 1446 1447 1448 1449 1450 1452 1453 1453 1454 1455 1456 1458 1459 1460 1462 1463 1464 1466 1467 1468 1470 1472 1473 1474 1476 1477
1449 1449 1448 1448 1447 1447 1447 1447 1447 1447 1446 1446 1446 1446 1446 1445 1445 1444 1444 1443 1443 1442 1441 1440 1440 1439 1439 1439 1440 1439 1439 1439 1439 1439 1440 1440 1439 1439 1438 1438 1438 1437 1437 1437 1437 1437 1437 1437 1437 1437 1437 1437 1438 1438 1439 1440 1440 1441 1442 1443 1444 1445 1446 1448 1449 1450 1450 1451 1452 1453 1454 1455 1457 1458 1459 1460 1462 1464 1466 1467 1469 1470 1472 1473 1473
1445 1445 1444 1444 1444 1444 1443 1443 1443 1443 1443 1443 1443 1443 1443 1442 1442 1441 1441 1440 1440 1439 1438 1438 1437 1437 1436 1436 1436 1436 1435 1435 1436 1436 1437 1437 1437 1436 1436 1436 1435 1435 1434 1434 1434 1434 1434 1435 1435 1435 1435 1435 1436 1436 1437 1437 1438 1439 1440 1441 1441 1442 1444 1445 1446 1447 1447 1448 1449 1450 1451 1452 1453 1454 1455 1457 1459 1461 1463 1465 1466 1468 1469 1469 1470
1441 1441 1441 1440 1440 1440 1440 1440 1440 1440 1440 1440 1440 1440 1440 1439 1439 1439 1438 1437 1437 1436 1436 1435 1434 1434 1433 1433 1432 1432 1432 1432 1432 1433 1433 1434 1434 1434 1434 1433 1433 1433 1432 1432 1431 1431 1431 1432 1432 1433 1433 1434 1434 1434 1435 1435 1436 1437 1438 1438 1439 1440 1441 1442 1443 1444 1445 1445 1446 1447 1448 1449 1450 1452 1453 1454 1456 1458 1460 1462 1464 1465 1466 1467 1467
1437 1437 1437 1437 1437 1436 1436 1436 1436 1436 1436 1437 1437 1436 1436 1436 1436 1435 1435 1434 1434 1433 1432 1432 1431 1431 1430 1430 1429 1429 1428 1428 1428 1428 1428 1429 1429 1430 1430 1430 1430 1430 1430 1430 1429 1429 1428 1429 1429 1430 1431 1431 1432 1432 1433 1433 1434 1434 1435 1436 1436 1437 1438 1439 1440 1441 1442 1443 1444 1444 1445 1447 1448 1449 1451 1452 1454 1456 1458 1459 1460 1462 1462 1463 1464
1434 1433 1433 1433 1433 1433 1433 1433 1433 1433 1433 1433 1433 1433 1433 1433 1432 1432 1431 1431 1430 1430 1429 1428 1428 1427 1427 1427 1426 1426 1425 1424 1424 1424 1423 1423 1424 1424 1425 1425 1426 1426 1426 1427 1427 1426 1426 1425 1426 1426 1427 1428 1429 1429 1430 1431 1431 1432 1432 1433 1433 1434 1435 1436 1437 1438 1439 1440 1441 1442 1443 1444 1446 1447 1449 1450 1452 1453 1454 1456 1457 1458 1459 1460 1461
1430 1430 1429 1429 1429 1429 1429 1429 1430 1430 1430 1430 1430 1430 1429 1429 1429 1428 1428 1427 1427 1426 1425 1425 1424 1424 1424 1423 1423 1422 1421 1420 1420 1420 1419 1419 1419 1419 1420 1420 1421 1421 1422 1422 1423 1423 1423 1422 1422 1422 1423 1424 1425 1426 1427 1427 1428 1429 1429 1429 1430 1431 1431 1433 1434 1435 1436 1437 1438 1439 1441 1442 1443 1445 1446 1447 1448 1450 1451 1452 1453 1454 1455 1456 1457
1427 1427 1426 1426 1426 1426 1426 1426 1427 1427 1427 1426 1426 1426 1426 1426 1425 1425 1424 1424 1423 1422 1422 1421 1420 1420 1419 1419 1419 1418 1418 1417 1416 1416 1416 1415 1415 1415 1415 1415 1416 1416 1416 1417 1417 1418 1418 1418 1418 1418 1419 1420 1421 1422 1423 1424 1424 1425 1425 1426 1426 1427 1428 1429 1430 1432 1433 1434 1435 1436 1438 1439 1440 1442 1443 1444 1445 1446 1447 1448 1449 1450 1451 1452 1453
1424 1424 1423 1423 1423 1423 1423 1423 1423 1423 1423 1423 1423 1422 1422 1422 1422 1421 1421 1421 1420 1419 1418 1418 1417 1416 1415 1415 1414 1414 1414 1413 1413 1412 1411 1411 1410 1410 1410 1411 1411 1411 1411 1411 1412 1413 1413 1413 1414 1414 1415 1415 1416 1417 1418 1419 1420 1420 1421 1422 1422 1423 1424 1425 1427 1429 1430 1431 1432 1433 1434 1435 1436 1438 1439 1440 1441 1442 1443 1444 1445 1446 1447 1448 1449
1421 1420 1420 1420 1420 1420 1420 1420 1420 1420 1420 1420 1419 1419 1419 1419 1418 1418 1418 1417 1417 1416 1415 1414 1413 1412 1412 1411 1411 1410 1410 1409 1408 1407 1407 1407 1406 1406 1406 1406 1406 1406 1406 1407 1408 1409 1409 1409 1409 1410 1410 1411 1412 1412 1413 1414 1415 1416 1417 1418 1418 1420 1421 1422 1424 1425 1426 1427 1428 1430 1431 1432 1433 1434 1435 1436 1437 1438 1439 1440 1441 1442 1443 1444 1446
1417 1417 1418 1417 1417 1417 1417 1417 1417 1416 1416 1417 1416 1416 1416 1416 1415 1415 1415 1414 1414 1413 1412 1411 1410 1409 1408 1408 1407 1406 1405 1405 1404 1403 1403 1402 1402 1402 1402 1401 1401 1402 1402 1402 1403 1404 1405 1405 1406 1406 1407 1407 1408 1408 1409 1409 1410 1411 1412 1413 1414 1416 1417 1418 1420 1421 1422 1424 1425 1426 1427 1428 1429 1430 1432 1433 1434 1434 1435 1436 1437 1438 1439 1441 1443
1415 1415 1415 1415 1414 1414 1414 1414 1414 1414 1414 1413 1413 1413 1413 1413 1412 1412 1412 1411 1410 1410 1408 1407 1406 1405 1405 1404 1403 1402 1401 1401 1400 1399 1398 1398 1398 1398 1397 1397 1397 1397 1398 1398 1398 1399 1400 1401 1401 1402 1403 1403 1404 1404 1405 1405 1406 1407 1407 1408 1410 1411 1413 1415 1416 1417 1418 1420 1421 1422 1423 1424 1426 1427 1428 1429 1430 1430 1431 1433 1434 1435 1436 1438 1440
1413 1412 1412 1412 1412 1411 1411 1411 1411 1411 1411 1410 1410 1410 1410 1410 1409 1409 1409 1408 1407 1406 1406 1405 1403 1402 1401 1400 1400 1399 1398 1397 1396 1395 1394 1394 1394 1394 1393 1393 1393 1393 1393 1393 1394 1395 1396 1396 1397 1398 1398 1399 1399 1400 1400 1401 1402 1402 1403 1404 1405 1407 1409 1411 1412 1413 1415 1416 1417 1418 1419 1420 1421 1423 1424 1425 1426 1427 1428 1429 1430 1432 1434 1435 1437
1411 1410 1410 1410 1410 1409 1409 1409 1409 1409 1408 1408 1408 1407 1407 1407 1407 1406 1406 1405 1404 1403 1403 1402 1400 1399 1398 1397 1396 1395 1394 1393 1392 1391 1390 1390 1389 1389 1389 1389 1388 1389 1389 1389 1390 1390 1391 1392 1393 1394 1394 1394 1395 1395 1396 1396 1397 1398 1399 1400 1402 1403 1405 1406 1408 1409 1411 1412 1413 1414 1415 1416 1417 1419 1420 1421 1422 1423 1424 1425 1427 1429 1431 1432 1434
1410 1409 1408 1408 1408 1408 1407 1407 1406 1406 1406 1405 1405 1405 1405 1404 1404 1404 1403 1402 1401 1400 1399 1398 1397 1396 1395 1394 1392 1391 1390 1389 1389 1388 1386 1386 1385 1385 1384 1384 1384 1384 1385 1385 1386 1387 1388 1389 1390 1390 1391 1391 1391 1391 1391 1392 1393 1394 1396 1397 1398 1399 1401 1402 1403 1405 1407 1408 1409 1410 1411 1412 1413 1414 1416 1417 1418 1419 1421 1422 1424 1426 1427 1429 1431